Home > Time Zones > World Clock > Weather > Fiji > Nadi > Past weeks

Flag for Fiji Weather past 2 weeks in Nadi, Fiji

Now
77 °F

Passing clouds.


Feels Like: 78 °F
Forecast: 74 / 81 °F
Wind: 2 mph from South

Location: Nandi

Current Time: Sep 6, 2015 at 12:36:47 AM

Latest Report: Sep 6, 2015 at 12:00 AM


Visibility: N/A

Pressure: 29.95 "Hg

Humidity: 83%

Dew point: 72 °F

Location of NadiLocation

Historic Weather in Nadi — Graph

°F

Nadi temperature yesterday

Maximum temperature yesterday: 82 °F (at 10:00 AM)
Minimum temperature yesterday: 73 °F (at 3:00 AM)
Average temperature yesterday: 78 °F

Past Weeks' High & Low Weather Summary

 TemperatureHumidityPressure
High84 °F (Aug 25, 1:00 PM)100% (Aug 23, 3:00 AM)30.09 "Hg (Aug 23, 3:00 AM)
Low57 °F (Aug 31, 7:00 AM)42% (Aug 26, 2:00 PM)29.86 "Hg (Aug 24, 4:00 PM)
Average73 °F74%29.99 "Hg
* Reported Aug 21 11:00 PM — Sep 5 11:00 PM, Nadi, Weather by CustomWeather, © 2015

Note: Actual official high and low records may vary slightly from our data, if they occured in-between our weather recording intervals... More about our weather records

Advertising

Nadi weather history for previous 24 hours

 ConditionsComfort  
Time TempWeatherWind HumidityBarometerVisibility
11:00 PM
Sat, Sep 5
77 °FPassing clouds.2 mph83%29.95 "HgN/A
10:00 PM77 °FPartly cloudy.5 mph79%29.98 "HgN/A
9:00 PM79 °FPartly cloudy.5 mph74%29.98 "HgN/A
8:00 PM79 °FPartly cloudy.3 mph79%29.95 "HgN/A
7:00 PM79 °FPartly cloudy.5 mph74%29.95 "HgN/A
6:00 PM81 °FBroken clouds.7 mph70%29.92 "HgN/A
5:00 PM81 °FBroken clouds.7 mph74%29.92 "HgN/A
4:00 PM81 °FPartly sunny.9 mph70%29.89 "HgN/A
3:00 PM82 °FPartly sunny.7 mph70%29.89 "HgN/A
2:00 PM81 °FPartly sunny.10 mph74%29.92 "HgN/A
1:00 PM82 °FScattered clouds.15 mph70%29.95 "HgN/A
12:00 PM82 °FScattered clouds.14 mph70%29.95 "HgN/A
11:00 AM82 °FScattered clouds.9 mph70%29.98 "HgN/A
10:00 AM82 °FPassing clouds.6 mph70%29.98 "HgN/A
9:00 AM81 °FPassing clouds.3 mph74%29.98 "HgN/A
8:00 AM75 °FPassing clouds.2 mph83%29.98 "HgN/A
7:00 AM73 °FBroken clouds.3 mph94%29.98 "HgN/A
6:00 AM73 °FPartly cloudy.3 mph94%29.95 "HgN/A
5:00 AM73 °FPassing clouds.3 mph94%29.95 "HgN/A
4:00 AM73 °FPartly cloudy.2 mph94%29.95 "HgN/A
3:00 AM73 °FPartly cloudy.2 mph94%29.95 "HgN/A
2:00 AM75 °FLight rain. Passing clouds.3 mph94%29.95 "HgN/A
1:00 AM75 °FPartly cloudy.2 mph89%29.98 "HgN/A
12:00 AM77 °FLight rain. Passing clouds.2 mph83%29.98 "HgN/A
Weather by CustomWeather, © 2015

See weather overviewHow to use our weather pages